Regional Weather Roundup
Issued by NWS

Home | Current Version | Previous Version | Graphics & Text | Print | Product List | Glossary On
Versions: 1 2 3 4 5 6 7 8 9 10 11 12 13 14 15 16 17 18 19 20 21 22 23 24 25 26 27 28 29 30 31 32 33 34 35 36 37 38 39 40 41 42 43 44 45 46 47 48 49 50
150
ASUS44 KJAN 180410
RWRMS

MISSISSIPPI HOURLY WEATHER ROUNDUP
NATIONAL WEATHER SERVICE JACKSON MS
1000 PM CST WED DEC 17 2014

NOTE: "FAIR: INDICATES FEW OR NO CLOUDS BELOW 12,000 FEET WITH NO
SIGNIFICANT WEATHER AND/OR OBSTRUCTIONS TO VISIBILITY.

MSZ001>002-007>008-010>013-018>021-025>028-034>036-180500-
NORTHWEST MISSISSIPPI

CITY           SKY/WX    TMP DP  RH WIND       PRES   REMARKS
CLARKSDALE     MOCLDY    41  37  87 N8        30.25R
CLEVELAND      CLOUDY    42  38  85 N6        30.25R
GREENWOOD      CLOUDY    41  36  82 N3        30.22S
GREENVILLE     CLOUDY    43  37  79 NE6       30.23R
GRENADA        FAIR      41  36  81 CALM      30.24R
OLIVE BRANCH   CLOUDY    37  34  87 NE7       30.24S WCI  32
OXFORD         MOCLDY    37  32  81 NE5       30.23F WCI  34
TUNICA         CLOUDY    39  36  87 N5        30.25S
$$

MSZ003>006-009-014>017-022>024-029>033-037>039-180500-
NORTHEAST MISSISSIPPI

CITY           SKY/WX    TMP DP  RH WIND       PRES   REMARKS
COLUMBUS AFB   CLOUDY    41  35  78 NE5       30.22S
CORINTH        CLOUDY    39  32  75 NE5       30.23S
GOLDN TRIANGLE CLOUDY    43  36  75 E5        30.20F
STARKVILLE     FAIR      39  36  87 CALM      30.22F
TUPELO         CLOUDY    41  33  73 NE7       30.24R
$$

MSZ040-058-180500-
CENTRAL MISSISSIPPI

CITY           SKY/WX    TMP DP  RH WIND       PRES   REMARKS
JACKSON INTL   CLOUDY    44  40  85 N5        30.20F
JACKSON HAWKNS CLOUDY    46  38  73 NE6       30.20F
MERIDIAN KEY   CLOUDY    45  38  76 NE10      30.21S
MERIDIAN NAS   CLOUDY    44  37  76 NE6       30.22S
RAYMOND        FAIR      45  39  81 MISG      30.19F
VICKSBURG      PTCLDY    45  38  76 N3        30.22R
$$

MSZ059>079-180500-
SOUTH MISSISSIPPI

CITY           SKY/WX    TMP DP  RH WIND       PRES   REMARKS
HATTIESBURG    CLOUDY    44  41  89 CALM      30.21F
MCCOMB         CLOUDY    47  41  80 CALM      30.19S
NATCHEZ        CLOUDY    48  39  71 E6        30.17F
PINE BELT      CLOUDY    45  39  81 CALM      30.20F
$$

MSZ080>082-180500-
COASTAL MISSISSIPPI

CITY           SKY/WX    TMP DP  RH WIND       PRES   REMARKS
BILOXI         CLOUDY    50  42  73 NE2       30.21R
PASCAGOULA     CLOUDY    42  40  92 CALM      30.22R
GULFPORT       CLOUDY    46  42  86 CALM      30.21R
$$



USA.gov is the U.S. government's official web portal to all federal, state and local government web resources and services.